Location: Lake Sonoma
(38.7200°N, 123.0564°W)
Time: 03:48:49
(UTC-08:00)

ISS - All Passes

Search period start: 27 February 2017 00:00
Search period end: 09 March 2017 00:00
Orbit: 399 x 408 km, 51.6° (Epoch: 27 February)

Date Brightness Start Highest point End Pass type
(mag) Time Alt. Az. Time Alt. Az. Time Alt. Az.
27 Feb - 06:19:07 10° S 06:21:47 23° SE 06:24:28 10° ENE visible
27 Feb - 07:55:03 10° W 07:58:06 35° NNW 08:01:11 10° NE daylight
27 Feb - 09:34:19 10° NNW 09:35:20 11° NNW 09:36:22 10° N daylight
27 Feb - 12:47:42 10° NNW 12:50:28 24° NNE 12:53:13 10° E daylight
27 Feb - 14:23:55 10° WNW 14:27:01 40° SW 14:30:06 10° SSE daylight
28 Feb - 05:28:11 10° SSE 05:29:27 12° SE 05:30:42 10° ESE visible
28 Feb - 07:02:13 10° WSW 07:05:30 66° NW 07:08:46 10° NE daylight
28 Feb - 08:40:36 10° NW 08:42:28 14° NNW 08:44:21 10° NNE daylight
28 Feb - 11:55:29 10° NNW 11:57:42 17° NNE 11:59:55 10° ENE daylight
28 Feb - 13:31:15 10° NW 13:34:32 86° SW 13:37:48 10° SE daylight
01 Mar - 06:09:42 10° SW 06:12:57 60° SE 06:16:12 10° ENE visible
01 Mar - 07:47:09 10° WNW 07:49:39 20° NNW 07:52:10 10° NNE daylight
01 Mar - 11:03:21 10° N 11:04:51 12° NNE 11:06:20 10° NE daylight
01 Mar - 12:38:44 10° NW 12:41:57 47° NE 12:45:08 10° ESE daylight
01 Mar - 14:16:00 10° W 14:18:08 16° SW 14:20:15 10° S daylight
02 Mar - 05:17:36 10° SSW 05:20:29 29° SE 05:23:23 10° ENE visible
02 Mar - 06:53:57 10° W 06:56:54 30° NNW 06:59:52 10° NNE daylight
02 Mar - 08:33:34 10° NNW 08:34:12 10° N 08:34:50 10° N daylight
02 Mar - 10:11:37 10° N 10:11:55 10° N 10:12:13 10° NNE daylight
02 Mar - 11:46:22 10° NNW 11:49:16 28° NNE 11:52:09 10° E daylight
02 Mar - 13:22:45 10° WNW 13:25:44 32° SW 13:28:41 10° SSE daylight
03 Mar - 04:26:10 10° SSE 04:28:05 15° SE 04:30:00 10° E visible
03 Mar - 06:01:00 10° WSW 06:04:13 53° NW 06:07:28 10° NE visible
03 Mar - 07:39:39 10° NW 07:41:17 13° NNW 07:42:55 10° NNE daylight
03 Mar - 10:54:04 10° NNW 10:56:29 18° NNE 10:58:53 10° ENE daylight
03 Mar - 12:29:57 10° NW 12:33:14 68° SW 12:36:29 10° SE daylight
04 Mar - 05:08:20 10° SW 05:11:37 77° SE 05:14:54 10° NE visible
04 Mar - 06:46:05 10° WNW 06:48:24 17° NNW 06:50:43 10° NNE daylight
04 Mar - 10:01:52 10° NNW 10:03:37 14° NNE 10:05:22 10° NE daylight
04 Mar - 11:37:22 10° NW 11:40:38 59° NE 11:43:52 10° ESE daylight
04 Mar - 13:15:06 10° W 13:16:43 13° SW 13:18:19 10° SSW daylight
05 Mar - 04:16:02 10° SSW 04:19:05 36° SE 04:22:08 10° ENE visible
05 Mar - 05:52:46 10° W 05:55:35 26° NNW 05:58:25 10° NNE visible
05 Mar - 09:09:50 10° N 09:10:40 11° NNE 09:11:30 10° NNE daylight
05 Mar - 10:44:55 10° NW 10:47:56 32° NNE 10:50:56 10° E daylight
05 Mar - 12:21:31 10° WNW 12:24:18 26° SW 12:27:05 10° S daylight
06 Mar - 03:24:18 10° S 03:26:37 18° SE 03:28:57 10° E visible
06 Mar - 04:59:41 10° WSW 05:02:51 43° NNW 05:06:01 10° NE visible
06 Mar - 06:38:36 10° NW 06:39:58 12° NNW 06:41:20 10° N daylight
06 Mar - 09:52:34 10° NNW 09:55:08 21° NNE 09:57:43 10° ENE daylight
06 Mar - 11:28:34 10° WNW 11:31:47 53° SW 11:35:00 10° SE daylight
07 Mar - 04:06:53 10° SW 04:10:10 85° NW 04:13:29 10° NE visible
07 Mar - 05:44:55 10° WNW 05:47:02 16° NNW 05:49:10 10° NNE visible
07 Mar - 09:00:17 10° NNW 09:02:15 15° NNE 09:04:14 10° ENE daylight
07 Mar - 10:35:53 10° NW 10:39:11 73° NE 10:42:28 10° ESE daylight
07 Mar - 12:14:33 10° WSW 12:15:11 10° SW 12:15:49 10° SW daylight
08 Mar - 03:14:26 10° SSW 03:17:34 45° SE 03:20:44 10° ENE visible
08 Mar - 04:51:29 10° W 04:54:10 23° NNW 04:56:51 10° NNE visible
08 Mar - 08:08:08 10° N 08:09:17 11° NNE 08:10:28 10° NE daylight
08 Mar - 09:43:22 10° NW 09:46:29 38° NNE 09:49:35 10° ESE daylight
08 Mar - 11:20:12 10° W 11:22:46 21° SW 11:25:18 10° S daylight
